Terug naar catalogus

COSMOS 1299 FUEL CORE

ActiefLEO
NORAD 12808·DEBRIS·🇷🇺 Russia

Gelanceerd Aug 24, 1981 vanaf Baikonur Cosmodrome

Loading…

Volgende Passages (komende 24 uur)

TLE

VersSource: Space-Track

Epoch: Sep 14, 2026, 12:00 UTC

1 12808U 81081C   26257.50036346 -.00000070  00000-0  16073-4 0  9995
2 12808  65.1183 333.2330 0007631  98.3151 273.6602 13.88661631284773

Volg COSMOS 1299 FUEL CORE in realtime met AllMySat

Download on the App Store